Retour au catalogue

STARLINK-34008

ActifCommunicationsVLEO
NORAD 64037·PAYLOAD·🇺🇸 United States

Lancé May 16, 2025 depuis Vandenberg Space Force Base

Loading…

Prochains Passages (prochaines 24 heures)

TLE

FraisSource: CelesTrak SupGP

Époque: Sep 15, 2026, 03:05 UTC

1 64037C 25102R   26258.12895833  .00091690  00000+0  31928-2 0  2589
2 64037  70.0009 355.2686 0003134 266.3573 208.8808 15.29500303    19

Suivez STARLINK-34008 en temps réel avec AllMySat

Download on the App Store